Location: Newark
(41.0400°S, 62.7845°W)
Time: 19:35:07
(UTC+00:00)

X-37B - Pass Details

Date: 23 October 2021
Orbit: 330 x 341 km, 45.0° (Epoch: 20 November)

Event Time Altitude Azimuth Distance (km) Brightness Sun altitude
Exits shadow 07:23:13 71° 98° (E) 362 0.5 -18.9°
Drops below altitude 10° 07:25:51 10° 111° (ESE) 1,284 4.4 -18.5°
Sets 07:27:52 0° 111° (ESE) 2,126 5.8 -18.2°
